Flag for U.S.A. Weather past 2 weeks in Monticello, Kentucky, U.S.A.

Now
31 °F

Clear.


Feels Like: 31 °F
Forecast: 29 / 54 °F
Wind: No wind

Location: London-Corbin Airport-Magee Field

Current Time: Dec 26, 2014 at 1:41:53 AM

Latest Report: Dec 26, 2014 at 12:53 AM


Visibility: 8 mi

Pressure: 30.24 "Hg

Humidity: 79%

Dew point: 25 °F

Location of MonticelloLocation

Historic Weather in Monticello — Graph

°F

Monticello temperature yesterday

Maximum temperature yesterday: 44 °F (at 2:53 PM)
Minimum temperature yesterday: 31 °F (at 11:53 PM)
Average temperature yesterday: 39 °F

Past Weeks' High & Low Weather Summary

 TemperatureHumidityPressure
High64 °F (Dec 24, 1:53 PM)89% (Dec 17, 2:53 AM)30.40 "Hg (Dec 17, 2:53 AM)
Low21 °F (Dec 12, 5:53 AM)40% (Dec 15, 2:53 PM)29.44 "Hg (Dec 24, 2:53 PM)
Average40 °F71%30.11 "Hg
* Reported Dec 10 11:53 PM — Dec 25 11:53 PM, Monticello, Weather by CustomWeather, © 2014

Note: Actual official high and low records may vary slightly from our data, if they occured in-between our weather recording intervals... More about our weather records

Advertising

Monticello weather history for previous 24 hours

 ConditionsComfort  
Time TempWeatherWind HumidityBarometerVisibility
11:53 PM
Dec 25
31 °FClear.No wind82%30.23 "Hg10 mi
10:53 PM32 °FClear.No wind82%30.22 "Hg10 mi
9:53 PM33 °FClear.No wind82%30.21 "Hg10 mi
8:53 PM34 °FClear.No wind79%30.22 "Hg10 mi
7:53 PM36 °FClear.3 mph75%30.25 "Hg10 mi
6:53 PM38 °FClear.3 mph70%30.26 "Hg10 mi
5:53 PM42 °FClear.No wind62%30.20 "Hg10 mi
4:53 PM44 °FSunny.5 mph55%30.20 "Hg10 mi
3:53 PM44 °FScattered clouds.5 mph55%30.17 "Hg10 mi
2:53 PM44 °FPartly sunny.6 mph55%30.16 "Hg10 mi
2:01 PM43 °FOvercast.7 mph60%30.16 "Hg10 mi
12:53 PM42 °FMostly cloudy.9 mph65%30.19 "Hg10 mi
11:53 AM42 °FOvercast.10 mph68%30.19 "Hg10 mi
10:53 AM40 °FMostly cloudy.9 mph70%30.19 "Hg10 mi
9:53 AM40 °FOvercast.9 mph70%30.16 "Hg10 mi
8:53 AM40 °FLight rain. Cloudy.13 mph73%30.12 "Hg10 mi
7:53 AM40 °FMostly cloudy.5 mph77%30.09 "Hg10 mi
6:53 AM40 °FMostly cloudy.9 mph73%30.04 "Hg10 mi
5:53 AM40 °FOvercast.7 mph77%30.00 "Hg10 mi
4:53 AM40 °FOvercast.6 mph73%29.96 "Hg10 mi
3:53 AM40 °FMostly cloudy.7 mph73%29.95 "Hg10 mi
2:53 AM40 °FMostly cloudy.8 mph77%29.90 "Hg10 mi
1:53 AM40 °FMostly cloudy.9 mph77%29.87 "Hg10 mi
Weather by CustomWeather, © 2014

See weather overviewHow to use our weather pages